Regional Weather Roundup
Issued by NWS

Home | Current Version | Previous Version | Graphics & Text | Print | Product List | Glossary On
Versions: 1 2 3 4 5 6 7 8 9 10 11 12 13 14 15 16 17 18 19 20 21 22 23 24 25 26 27 28 29 30 31 32 33 34 35 36 37 38 39 40 41 42 43 44 45 46 47 48 49 50
000
ASUS43 KLMK 021702
RWRKY
KENTUCKY REGIONAL WEATHER ROUNDUP
NATIONAL WEATHER SERVICE LOUISVILLE KY
100 PM EDT TUE SEP 02 2014

NOTE "FAIR" INDICATES FEW OR NO CLOUDS BELOW 12,000 FEET
WITH NO SIGNIFICANT WEATHER AND/OR OBSTRUCTIONS TO VISIBILITY.

KYZ001>023-026-027-061>063-070>075-021800-
WESTERN AND SOUTH CENTRAL KENTUCKY

CITY           SKY/WX    TMP DP  RH WIND       PRES   REMARKS
PADUCAH        CLOUDY    83  72  69 SW9       29.97R
HENDERSON      PTSUNNY   84  73  70 W10G17    29.94F HX  91
OWENSBORO      NOT AVBL
HOPKINSVILLE   PTSUNNY   84  75  74 SW15      29.98F HX  92
BOWLING GREEN  PTSUNNY   87  73  62 SW14      29.99F HX  94
GLASGOW        PTSUNNY   86  71  61 SW12G21   30.00F HX  91
$$

KYZ024-025-028>034-038-045-046-053-021800-
NORTH CENTRAL KENTUCKY

CITY           SKY/WX    TMP DP  RH WIND       PRES   REMARKS
LOUISVILLE/SDF CLOUDY    80  70  71 SW10      29.97F
LOUISVILLE/LOU LGT RAIN  78  70  76 S6        29.97F
FORT KNOX      CLOUDY    81  73  75 S7        29.97F
$$

KYZ035>037-039>044-047>052-055>060-089>105-021800-
NORTHEAST KENTUCKY

CITY           SKY/WX    TMP DP  RH WIND       PRES   REMARKS
LEXINGTON      PTSUNNY   83  69  62 SW13      30.01F
COVINGTON      PTSUNNY   77  67  71 W12       29.97F
FRANKFORT      PTSUNNY   81  70  69 SW8       29.99F
$$

KYZ054-064>069-076>088-106>120-021800-
SOUTHEAST KENTUCKY

CITY           SKY/WX    TMP DP  RH WIND       PRES   REMARKS
JACKSON        PTSUNNY   83  72  69 VRB5      30.04F
LONDON         MOSUNNY   85  70  60 SW9       30.05F
SOMERSET       MOSUNNY   82  70  65 SW10      30.05F
MIDDLESBORO    MOSUNNY   83  72  67 SE3       30.08F
MONTICELLO     MOSUNNY   87  73  62 SW13      30.05F HX  94
$$



USA.gov is the U.S. government's official web portal to all federal, state and local government web resources and services.